[[{"header":{"parameterUnit":"m.s-1","parameterCategory":1,"la1":30.2991,"la2":30.254,"lo1":-89.0895,"lo2":-89.0444,"dy":0.0017,"dx":0.0017,"nx":28,"ny":28,"refTime":"2026-03-05T09:00:00:Z","depth":0,"parameterNumber":2,"parameterNumberName":"U-component_of_WINDS"},"data":[0,0,0,0,0,0,0,0,0,0,0,0,0,0,0,0,0,0,0,0,0,0,0,0,0,0,0,0,0,0,0,0,0,0,0,0,0,0,0,0,0,0,0,0,0,0,0,0,0,0,0,0,0,0,0,0,0,0,-3.3368,-3.3368,0,-3.3401,-3.3401,-3.3401,-3.3343,-3.3341,-3.3339,-3.3337,-3.3373,-3.3376,-3.3379,0,0,0,0,0,0,0,0,0,0,0,0,0,-3.3258,-3.3261,-3.3368,-3.3368,-3.3369,-3.34,-3.3401,-3.3401,-3.3343,-3.3341,-3.3338,-3.3336,-3.3372,-3.3375,-3.3379,0,0,0,0,0,0,0,0,0,0,0,0,0,-3.33,-3.3261,-3.3368,-3.3343,-3.3341,-3.34,-3.3401,-3.3402,-3.3344,-3.3341,-3.3338,-3.3335,-3.3371,-3.3375,-3.3379,-3.3464,0,0,-3.3392,-3.3394,0,0,0,0,0,0,0,0,-3.3298,-3.3304,-3.3346,-3.3345,-3.3343,-3.3364,-3.3376,-3.3423,-3.3344,-3.3343,-3.3337,-3.3333,-3.3373,-3.3377,-3.3389,-3.3466,-3.3468,-3.3393,-3.3395,-3.3397,-3.3398,0,0,0,0,0,0,0,-3.3295,-3.3302,-3.3381,-3.3347,-3.3345,-3.3332,-3.3335,-3.3384,-3.3374,-3.3343,-3.3338,-3.3343,-3.3371,-3.3385,-3.339,-3.3468,-3.3392,-3.3396,-3.3399,-3.34,-3.3618,-3.3621,0,0,0,0,0,0,-3.3295,-3.33,-3.338,-3.3382,-3.3313,-3.3336,-3.3339,-3.3361,-3.3373,-3.3372,-3.3346,-3.334,-3.338,-3.3385,-3.3391,-3.3492,-3.3397,-3.3401,-3.3403,-3.3615,-3.3619,-3.3622,0,0,0,0,0,0,-3.3293,-3.3302,-3.3378,-3.334,-3.3349,-3.3341,-3.3366,-3.3363,-3.3377,-3.3375,-3.3374,-3.3362,-3.3378,-3.3385,-3.3447,-3.3492,-3.3403,-3.3407,-3.3611,-3.3616,-3.3621,-3.3694,0,0,0,0,0,0,-3.329,-3.3302,-3.3333,-3.3341,-3.3351,-3.3433,-3.3369,-3.3366,-3.3384,-3.3377,-3.339,-3.3389,-3.3376,-3.3441,-3.3451,-3.3496,-3.341,-3.3607,-3.3613,-3.3619,-3.3687,-3.3701,-3.3712,0,0,0,0,0,-3.3286,-3.3353,-3.3335,-3.3345,-3.339,-3.3435,-3.3441,-3.3423,-3.3388,-3.342,-3.3419,-3.3389,-3.3486,-3.3448,-3.3458,-3.3506,-3.3604,-3.3612,-3.3619,-3.3682,-3.3698,-3.3712,0,0,0,0,0,0,-3.335,-3.3353,-3.3333,-3.3404,-3.342,-3.3425,-3.3465,-3.3441,-3.3467,-3.346,-3.3438,-3.3442,-3.3508,-3.3513,-3.3471,-3.359,-3.3539,-3.3549,-3.3583,-3.3599,-3.3611,-3.3608,-3.3413,0,0,0,0,0,-3.3373,-3.3409,-3.341,-3.3472,-3.3481,-3.3472,-3.3491,-3.3477,-3.3492,-3.3499,-3.3502,-3.352,-3.3554,-3.3577,-3.3608,-3.3689,-3.3691,-3.3727,-3.3739,-3.3749,-3.3758,-3.3801,-3.3817,-3.3647,-3.3646,-3.3646,0,0,-3.3419,-3.3426,-3.3449,-3.3486,-3.3496,-3.3535,-3.3478,-3.3521,-3.355,-3.3505,-3.3563,-3.3568,-3.3585,-3.3657,-3.3689,-3.3663,-3.3806,-3.3759,-3.3767,-3.3769,-3.381,-3.3827,-3.3841,-3.3652,-3.3651,-3.365,0,0,-3.3524,-3.3532,-3.3585,-3.3597,-3.3614,-3.3607,-3.3621,-3.363,-3.3631,-3.3689,-3.3656,-3.3692,-3.3751,-3.3765,-3.378,-3.3893,-3.3867,-3.3905,-3.3968,-3.4011,-3.4024,-3.4036,-3.4076,-3.4091,-3.3913,-3.3913,-3.3913,0,-3.358,-3.3636,-3.3616,-3.3662,-3.3679,-3.3641,-3.3695,-3.3708,-3.3735,-3.3748,-3.3719,-3.3794,-3.3803,-3.3878,-3.3906,-3.3919,-3.3934,-3.3902,-3.4024,-3.4036,-3.4046,-3.4084,-3.41,-3.3918,-3.3917,-3.3917,-3.3916,0,-3.3704,-3.3744,-3.3785,-3.3811,-3.3833,-3.3883,-3.3872,-3.3898,-3.3882,-3.3879,-3.394,-3.395,-3.3984,-3.4001,-3.3986,-3.4074,-3.4058,-3.4027,-3.3976,-3.4067,-3.4103,-3.4117,-3.3924,-3.3922,-3.3921,-3.392,0,0,-3.3847,-3.3863,-3.3878,-3.389,-3.3907,-3.3937,-3.3987,-3.4019,-3.4041,-3.4062,-3.4103,-3.4155,-3.4128,-3.4145,-3.4132,-3.417,-3.4259,-3.4134,-3.4135,-3.4157,-3.4357,-3.4379,-3.4396,-3.4242,-3.4245,-3.4247,-3.4355,0,-3.395,-3.4034,-3.4019,-3.41,-3.4137,-3.4103,-3.4146,-3.4162,-3.4162,-3.4194,-3.4195,-3.4232,-3.4192,-3.4203,-3.4239,-3.424,-3.4299,-3.4232,-3.4281,-3.4283,-3.4275,-3.4414,-3.4437,-3.4539,-3.4369,-3.4371,-3.4373,0,-3.4081,-3.4106,-3.4191,-3.4203,-3.4218,-3.4257,-3.4286,-3.4317,-3.4335,-3.4333,-3.4353,-3.4334,-3.4385,-3.4334,-3.4404,-3.436,-3.4379,-3.4383,-3.4387,-3.4389,-3.4332,-3.442,-3.4571,-3.4586,-3.4395,-3.4393,-3.4391,0,-3.4176,-3.4232,-3.429,-3.4301,-3.4317,-3.4345,-3.4353,-3.4368,-3.4389,-3.4415,-3.4429,-3.4461,-3.4478,-3.4505,-3.4495,-3.4459,-3.4568,-3.4516,-3.4567,-3.4567,-3.459,-3.4588,-3.4745,-3.4605,-3.4605,-3.4604,-3.4604,0,-3.4292,-3.4345,-3.4333,-3.4368,-3.4428,-3.4412,-3.4471,-3.4476,-3.449,-3.4527,-3.45,-3.4536,-3.4522,-3.4557,-3.455,-3.461,-3.4618,-3.4618,-3.4615,-3.4619,-3.4619,-3.463,-3.4623,-3.4608,-3.4607,-3.4607,-3.4606,0,-3.4407,-3.4401,-3.4462,-3.4473,-3.4477,-3.452,-3.4529,-3.4564,-3.4562,-3.461,-3.462,-3.4618,-3.4659,-3.4652,-3.4697,-3.4693,-3.4767,-3.4756,-3.476,-3.4757,-3.4808,-3.4803,-3.4976,-3.4998,-3.4845,-3.4847,-3.4848,0,-3.4481,-3.4521,-3.4536,-3.4559,-3.4569,-3.4605,-3.4627,-3.4613,-3.4637,-3.4662,-3.4693,-3.4731,-3.476,-3.4827,-3.483,-3.4865,-3.4854,-3.4913,-3.4859,-3.4863,-3.4854,-3.4852,-3.4856,-3.4923,-3.4925,-3.4926,-3.4927,0,-3.4612,-3.4607,-3.4638,-3.4669,-3.4695,-3.4719,-3.474,-3.4761,-3.475,-3.4778,-3.4818,-3.4841,-3.4887,-3.4926,-3.4959,-3.4968,-3.4947,-3.4945,-3.4958,-3.4962,-3.4962,-3.4962,-3.4788,-3.494,-3.4939,-3.4938,-3.4937,-3.4937,-3.4708,-3.4742,-3.4758,-3.4794,-3.4809,-3.483,-3.4863,-3.4867,-3.49,-3.4936,-3.4927,-3.4973,-3.4992,-3.5034,-3.5048,-3.5084,-3.5063,-3.5083,-3.5087,-3.5092,-3.5098,-3.4958,-3.5091,-3.509,-3.509,-3.509,-3.5089,0,-3.4836,-3.4846,-3.4879,-3.491,-3.4939,-3.4916,-3.4939,-3.4965,-3.5006,-3.5025,-3.5055,-3.5103,-3.514,-3.5148,-3.5184,-3.5212,-3.5203,-3.5222,-3.5219,-3.5222,-3.5115,-3.51,-3.5229,-3.5229,-3.5229,-3.5229,-3.5229,-3.5229,-3.4907,-3.4964,-3.4962,-3.5027,-3.5036,-3.5081,-3.5096,-3.5116,-3.5131,-3.5185,-3.5216,-3.5221,-3.5236,-3.5273,-3.5308,-3.5309,-3.5323,-3.5346,-3.5343,-3.5243,-3.5229,-3.5216,-3.5201,-3.5349,-3.535,-3.5447,-3.5448,-3.5448]},{"header":{"parameterUnit":"m.s-1","parameterCategory":1,"la1":30.2991,"la2":30.254,"lo1":-89.0895,"lo2":-89.0444,"dy":0.0017,"dx":0.0017,"nx":28,"ny":28,"refTime":"2026-03-05T09:00:00:Z","depth":0,"parameterNumber":3,"parameterNumberName":"V-component_of_WINDS"},"data":[0,0,0,0,0,0,0,0,0,0,0,0,0,0,0,0,0,0,0,0,0,0,0,0,0,0,0,0,0,0,0,0,0,0,0,0,0,0,0,0,0,0,0,0,0,0,0,0,0,0,0,0,0,0,0,0,0,0,0.3224,0.3225,0,0.3334,0.3335,0.3337,0.3427,0.3428,0.3429,0.343,0.3542,0.3544,0.3546,0,0,0,0,0,0,0,0,0,0,0,0,0,0.3093,0.3095,0.3224,0.3225,0.3227,0.3334,0.3336,0.3337,0.3427,0.3428,0.3429,0.343,0.3541,0.3543,0.3546,0,0,0,0,0,0,0,0,0,0,0,0,0,0.3171,0.3095,0.3224,0.3285,0.3291,0.3334,0.3336,0.3337,0.3427,0.3428,0.343,0.3431,0.354,0.3543,0.3546,0.3537,0,0,0.3556,0.3557,0,0,0,0,0,0,0,0,0.3166,0.3176,0.3274,0.3281,0.3288,0.3368,0.333,0.3404,0.3426,0.3375,0.343,0.3432,0.3483,0.3491,0.3508,0.3542,0.3547,0.3556,0.3558,0.3559,0.356,0,0,0,0,0,0,0,0.3161,0.3172,0.3268,0.3276,0.3284,0.3307,0.332,0.3345,0.342,0.338,0.3387,0.3398,0.3487,0.3505,0.3512,0.3549,0.3556,0.3559,0.3561,0.3562,0.3584,0.3583,0,0,0,0,0,0,0.3146,0.3166,0.3264,0.3271,0.323,0.3308,0.3322,0.3341,0.342,0.3433,0.3397,0.3402,0.3499,0.3508,0.3516,0.3513,0.3559,0.3562,0.3564,0.3585,0.3584,0.3582,0,0,0,0,0,0,0.3143,0.3154,0.326,0.3221,0.3236,0.3309,0.3329,0.3343,0.3361,0.3433,0.3447,0.3402,0.35,0.3511,0.3532,0.3518,0.3564,0.3567,0.3587,0.3585,0.3583,0.3504,0,0,0,0,0,0,0.3139,0.3152,0.3149,0.322,0.3238,0.3273,0.3328,0.3344,0.3366,0.3374,0.3441,0.3453,0.3502,0.3527,0.3535,0.3523,0.3569,0.3589,0.3586,0.3584,0.3508,0.35,0.3492,0,0,0,0,0,0.3134,0.3122,0.3148,0.316,0.3235,0.3272,0.3283,0.3339,0.3364,0.3363,0.3409,0.3451,0.3518,0.3528,0.3538,0.3527,0.359,0.3587,0.3584,0.3512,0.3501,0.3493,0,0,0,0,0,0,0.3046,0.3132,0.3163,0.3173,0.3215,0.3288,0.3286,0.3326,0.3361,0.3367,0.3436,0.345,0.3464,0.3497,0.3507,0.3523,0.3559,0.3558,0.3501,0.3492,0.3484,0.3476,0.3572,0,0,0,0,0,0.3028,0.3051,0.3125,0.3127,0.3146,0.3213,0.3231,0.3271,0.3317,0.3335,0.3383,0.3426,0.3458,0.3476,0.3509,0.3513,0.3531,0.3511,0.3503,0.3496,0.3494,0.3502,0.3495,0.3573,0.3573,0.3573,0,0,0.2991,0.3041,0.3051,0.3111,0.3148,0.3171,0.3227,0.3248,0.3266,0.3339,0.3362,0.3398,0.3451,0.3465,0.3473,0.3493,0.3477,0.3492,0.3486,0.3489,0.3498,0.3491,0.3484,0.3571,0.3571,0.3572,0,0,0.2936,0.2975,0.2982,0.3019,0.3075,0.3119,0.3121,0.3188,0.3216,0.324,0.3296,0.3318,0.3369,0.3406,0.3431,0.3391,0.3432,0.34,0.3358,0.3365,0.3359,0.3354,0.3342,0.3337,0.3398,0.3398,0.3398,0,0.2882,0.2919,0.2981,0.3,0.3025,0.3093,0.3101,0.3134,0.3197,0.3214,0.3235,0.3303,0.3343,0.3367,0.3357,0.3375,0.338,0.3393,0.3355,0.3351,0.3347,0.3336,0.3331,0.3394,0.3394,0.3395,0.3395,0,0.2852,0.2877,0.2876,0.2937,0.2963,0.2976,0.304,0.3059,0.3097,0.314,0.3165,0.3215,0.326,0.3269,0.3306,0.3299,0.331,0.3342,0.338,0.3334,0.3326,0.3322,0.3388,0.3389,0.339,0.3391,0,0,0.2744,0.284,0.2839,0.2869,0.2937,0.2957,0.2975,0.302,0.3035,0.3076,0.3094,0.3137,0.3168,0.3196,0.3238,0.3244,0.3213,0.3276,0.3279,0.3264,0.3211,0.3187,0.3181,0.324,0.3239,0.3239,0.3207,0,0.2701,0.2737,0.2793,0.281,0.2835,0.2901,0.2916,0.296,0.3,0.3028,0.3073,0.3103,0.314,0.3158,0.3167,0.3214,0.3203,0.3217,0.3258,0.3259,0.3244,0.3177,0.3151,0.3119,0.3204,0.3203,0.3203,0,0.2655,0.2695,0.2715,0.2783,0.2796,0.2809,0.2856,0.2881,0.2932,0.2962,0.2994,0.3041,0.3064,0.3097,0.3131,0.3139,0.3159,0.3185,0.3186,0.3193,0.3229,0.3183,0.311,0.3105,0.3198,0.3198,0.3199,0,0.2577,0.2635,0.2656,0.2679,0.2758,0.2766,0.28,0.2853,0.2877,0.2918,0.2935,0.2977,0.3,0.3033,0.309,0.3109,0.3118,0.3156,0.3144,0.3143,0.3144,0.3144,0.3074,0.3154,0.3154,0.3154,0.3154,0,0.2524,0.2534,0.2622,0.2634,0.2648,0.2714,0.2726,0.2765,0.2812,0.2834,0.2893,0.2912,0.2986,0.3014,0.3059,0.3082,0.3091,0.3117,0.3129,0.3112,0.3109,0.3127,0.3132,0.3153,0.3153,0.3154,0.3154,0,0.2439,0.2498,0.2525,0.2599,0.2618,0.2625,0.2689,0.2704,0.2748,0.2776,0.2786,0.2856,0.2892,0.2953,0.3006,0.3037,0.3052,0.3071,0.3034,0.3042,0.3028,0.3029,0.2969,0.2965,0.3045,0.3044,0.3043,0,0.2402,0.2412,0.2487,0.2507,0.2538,0.2568,0.2594,0.2659,0.2683,0.2744,0.2752,0.2794,0.2831,0.2887,0.2942,0.2985,0.3006,0.2982,0.3013,0.2997,0.3009,0.3008,0.301,0.2975,0.2974,0.2973,0.2972,0,0.2331,0.236,0.2395,0.244,0.2469,0.2507,0.2549,0.2561,0.2636,0.2661,0.2699,0.2728,0.2784,0.2825,0.2876,0.2911,0.2955,0.2962,0.2962,0.2946,0.2926,0.2939,0.3017,0.2964,0.2964,0.2965,0.2966,0.2966,0.227,0.2283,0.2339,0.2376,0.2414,0.2452,0.2471,0.2519,0.2552,0.2604,0.264,0.2677,0.2731,0.2803,0.2836,0.2867,0.2886,0.2885,0.2885,0.2885,0.2879,0.292,0.2876,0.2876,0.2877,0.2877,0.2877,0,0.2204,0.2243,0.2277,0.2334,0.2364,0.2402,0.2451,0.2473,0.2505,0.2552,0.2587,0.2633,0.2674,0.2734,0.2779,0.2792,0.2814,0.2802,0.2803,0.2811,0.2858,0.2855,0.2784,0.2784,0.2785,0.2785,0.2785,0.2785,0.2173,0.2197,0.2233,0.2277,0.2317,0.2354,0.2379,0.2415,0.2453,0.2502,0.2536,0.2575,0.2627,0.2678,0.2717,0.2734,0.2749,0.2732,0.2754,0.2798,0.2807,0.2815,0.2812,0.2734,0.2734,0.2705,0.2704,0.2704]}]]